Location: Fernhill
(41.0167°S, 175.6333°E)
Time: 11:17:30
(UTC+00:00)

Nadezhda 4 Rocket - Pass Details

Date: 08 November 2025
Orbit: 949 x 991 km, 82.9° (Epoch: 10 December)

Event Time Altitude Azimuth Distance (km) Brightness Sun altitude
Exits shadow 08:08:26 - 11° (N) 3,440 6.4 -11.1°
Reaches altitude 10° 08:10:27 10° 15° (NNE) 2,696 5.9 -11.4°
Maximum altitude 08:16:23 51° 89° (E) 1,194 4.2 -12.3°
Drops below altitude 10° 08:22:20 10° 163° (SSE) 2,708 6.6 -13.2°
Sets 08:24:54 0° 167° (SSE) 3,659 7.3 -13.6°
